This demonstration page uses our WeatherBlox Daily Observations layout. Learn more.

Left ArrowRight Arrow

40.97296, -117.73568

Hourly Observations for March 28, 2021

Temp ( °F °C ) Dew Point ( °F °C ) Humidity (%) Winds ( mph kmh ) Pressure ( in mb ) Visibility ( mi km ) Precip ( " mm )
12:56 am 00:56 Clear 37 2.8 23 -5 57 57 VRB 3 6 30.32 1027 10 16 0.00 0.00
1:56 am 01:56 Clear 32 0 23 -5 69 69 SE 6 9 30.31 1027 10 16 0.00 0.00
2:56 am 02:56 Clear 29 -1.7 21 -6.1 72 72 SSW 6 9 30.30 1026 10 16 0.00 0.00
3:56 am 03:56 Clear 32 0 22 -5.6 66 66 Calm 30.27 1025 10 16 0.00 0.00
4:56 am 04:56 Clear 30 -1.1 22 -5.6 72 72 ESE 8 13 30.27 1025 10 16 0.00 0.00
5:56 am 05:56 Clear 28 -2.2 20 -6.7 72 72 Calm 30.28 1025 10 16 0.00 0.00
6:56 am 06:56 Sunny 31 -0.6 22 -5.6 69 69 ENE 7 11 30.29 1026 10 16 0.00 0.00
7:56 am 07:56 Sunny 40 4.4 23 -5 51 51 Calm 30.31 1026 10 16 0.00 0.00
8:56 am 08:56 Sunny 53 11.7 23 -5 31 31 S 14 22 30.27 1025 10 16 0.00 0.00
9:56 am 09:56 Sunny 58 14.4 25 -3.9 28 28 S 16 26 30.23 1024 10 16 0.00 0.00
10:56 am 10:56 Sunny 64 17.8 23 -5 21 21 S 15 24 30.21 1023 10 16 0.00 0.00
11:56 am 11:56 Sunny 68 20 19 -7.2 15 15 SSW 13 20 30.18 1022 10 16 0.00 0.00
12:56 pm 12:56 Sunny 69 20.6 18 -7.8 14 14 SSW 17 28 30.14 1021 10 16 0.00 0.00
1:56 pm 13:56 Sunny 71 21.7 13 -10.6 10 10 WSW 22 35 30.11 1020 10 16 0.00 0.00
2:56 pm 14:56 Sunny 71 21.7 13 -10.6 10 10 SSW 23 37 30.08 1019 10 16 0.00 0.00
3:56 pm 15:56 Sunny 72 22.2 13 -10.6 10 10 SW 17 28 30.05 1018 10 16 0.00 0.00
4:56 pm 16:56 Sunny 72 22.2 6 -14.4 7 7 WSW 22 35 30.01 1016 10 16 0.00 0.00
5:56 pm 17:56 Sunny 70 21.1 8 -13.3 9 9 SW 21 33 30.00 1016 10 16 0.00 0.00
6:56 pm 18:56 Sunny 66 18.9 12 -11.1 12 12 SW 14 22 29.98 1015 10 16 0.00 0.00
7:56 pm 19:56 Clear 61 16.1 15 -9.4 17 17 SW 14 22 29.96 1015 10 16 0.00 0.00
8:56 pm 20:56 Clear 56 13.3 15 -9.4 20 20 SW 7 11 29.94 1014 10 16 0.00 0.00
9:56 pm 21:56 Clear 56 13.3 17 -8.3 22 22 VRB 6 9 29.95 1014 10 16 0.00 0.00
10:56 pm 22:56 Clear 57 13.9 14 -10 18 18 SSW 16 26 29.90 1013 10 16 0.00 0.00
11:56 pm 23:56 Clear 56 13.3 13 -10.6 18 18 SW 12 19 29.90 1012 10 16 0.00 0.00

Powered by AerisWeather